{"data":{"norad_id":69718,"intl_designator":"2026-147Q","name":"STARLINK-37989","alt_names":[],"object_type":"PAYLOAD","status":"ACTIVE","operator":null,"country":"US","launch_date":"2026-06-28","launch_site_code":"AFWTR","launch_vehicle":null,"mission":null,"orbit_class":"UNKNOWN","rcs_meters":null,"size_class":null,"mass_kg":null,"dimensions":null,"purposes":["comms"],"wikipedia_slug":null,"has_3d_model":false,"image_url":null,"decayed_at":null,"tle_current":{"epoch":"2026-09-20T00:52:01.994016Z","epoch_age_seconds":61652,"freshness":"FRESH","line1":"1 69718U 26147Q   26263.03613419  .00018184  00000+0  56371-3 0  9993","line2":"2 69718  97.2861 299.4147 0001611 121.6436 238.4964 15.33473041 14163","mean_motion":15.33473041,"eccentricity":0.0001611,"inclination_deg":97.2861,"raan_deg":299.4147,"arg_perigee_deg":121.6436,"mean_anomaly_deg":238.4964,"bstar":0.00056371,"rev_number":1416,"period_min":93.904487493367,"perigee_km":464.3572420263,"apogee_km":466.56224889768,"semimajor_km":6843.596745462,"source":"CELESTRAK","updated_at":"2026-09-20T09:00:44.283687Z"}}}